EW5526 Weather Reports


Display with metric or nautical units.
time (UTC)temp
F
wind
direction
speed
MPH
gust
MPH
rain 1hr
in
rain 24hr
in
rain mn
in
humidity
%
barometer
mb
20260506230041 63 21 1.0 3.0 0.00 0.00 0.00 68 1012.4
20260506223040 63 19 0.0 3.0 0.00 0.00 0.00 69 1012.9
20260506220040 63 17 3.0 5.0 0.00 0.00 0.00 68 1012.7
20260506213040 64 17 3.0 5.0 0.00 0.00 0.00 66 1012.6
20260506210039 62 321 2.0 3.0 0.00 0.00 0.00 72 1013.0
20260506200038 64 344 0.0 0.0 0.00 0.00 0.00 64 1013.0
20260506193038 66 344 0.0 2.0 0.00 0.00 0.00 55 1012.4
20260506190039 67 307 2.0 8.0 0.00 0.00 0.00 53 1011.6
20260506183037 68 11 2.0 4.0 0.00 0.00 0.00 53 1011.4
20260506180036 66 348 2.0 3.0 0.00 0.00 0.00 62 1012.0
20260506173035 67 39 0.0 2.0 0.00 0.00 0.00 70 1012.0
20260506170035 68 36 0.0 0.0 0.00 0.00 0.00 68 1012.3
20260506153034 70 340 4.0 6.0 0.00 0.00 0.00 55 1011.9
20260506150033 69 45 3.0 9.0 0.00 0.00 0.00 58 1012.4
20260506140032 70 106 3.0 4.0 0.00 0.00 0.00 55 1014.1
20260506133031 69 101 6.0 6.0 0.00 0.00 0.00 55 1014.4
20260506123031 69 116 3.0 11.0 0.00 0.00 0.00 55 1014.5
20260506120030 68 98 3.0 8.0 0.00 0.00 0.00 59 1014.6
20260506110028 70 85 5.0 5.0 0.00 0.00 0.00 47 1014.6
20260506103028 70 114 6.0 10.0 0.00 0.00 0.00 47 1014.9
20260506100028 70 115 2.0 9.0 0.00 0.00 0.00 48 1015.0
20260506093027 69 74 2.0 4.0 0.00 0.00 0.00 46 1014.9
20260506090026 69 147 2.0 12.0 0.00 0.00 0.00 47 1014.5
20260506083026 66 140 5.0 14.0 0.00 0.00 0.00 50 1014.7
20260506043022 60 90 2.0 5.0 0.00 0.00 0.00 61 1015.0
20260506033021 59 113 6.0 7.0 0.00 0.00 0.00 69 1014.9
20260506030021 59 103 2.0 10.0 0.00 0.00 0.00 70 1015.0
20260506023021 60 115 2.0 9.0 0.00 0.00 0.00 68 1015.2
20260506020020 61 143 3.0 5.0 0.00 0.00 0.00 64 1015.3
20260506013019 63 137 4.0 7.0 0.00 0.00 0.00 52 1015.4
20260506010019 62 65 2.0 6.0 0.00 0.00 0.00 53 1014.5
20260506003018 62 21 2.0 5.0 0.00 0.00 0.00 54 1014.8
20260506000018 62 95 1.0 9.0 0.00 0.00 0.00 54 1015.3
20260505233047 62 68 1.0 4.0 0.00 0.00 0.00 56 1015.5